Regional Weather Roundup
Issued by NWS

Home | Current Version | Previous Version | Text Only | Print | Product List | Glossary On
Versions: 1 2 3 4 5 6 7 8 9 10 11 12 13 14 15 16 17 18 19 20 21 22 23 24 25 26 27 28 29 30 31 32 33 34 35 36 37 38 39 40 41 42 43 44 45 46 47 48 49 50
000
ASUS43 KIND 210309
RWRIN

WEATHER ROUNDUP FOR INDIANA
NATIONAL WEATHER SERVICE INDIANAPOLIS IN
1000 PM EST TUE FEB 20 2018

NOTE: "FAIR" INDICATES FEW OR NO CLOUDS BELOW 12,000 FEET WITH NO
SIGNIFICANT WEATHER AND/OR OBSTRUCTIONS TO VISIBILITY.

* - STATION DOES NOT REPORT WEATHER SUCH AS PRECIPITATION OR FOG.

+ - STATION NOT QUALITY CONTROLLED BY THE NATIONAL WEATHER SERVICE.
    USE DATA WITH CAUTION...ESPECIALLY DEWPOINT AND RELATIVE
    HUMIDITY OBSERVATIONS.

INZ001>003-010>013-019-020-210400-
NORTHWEST INDIANA

CITY           SKY/WX    TMP DP  RH WIND       PRES   REMARKS
LA PORTE +     RAIN      39  39  97 NW13      30.09R WCI  32
MICHIGAN CITY+ RAIN      36  36 100 W5        30.12R WCI  32
MONTICELLO +   DRIZZLE   55  54  95 W6        30.05S
RENSSELAER +   RAIN      43  39  87 NW7       30.09R
VALPARAISO     LGT RAIN  44  41  89 N10G20    30.08R FOG

$$

LMZ046-743>745-210400-
SOUTHERN LAKE MICHIGAN

STATION/POSITION TIME  TEMP    WIND        PRES    WAVE
                       AIR SEA DIR/SP/G            HT
                 (UTC) (F)     (DEG/KT/KT) (MB)    (FT)
MICHIGAN CITY    0240   35     290/  3/  4   N/A

$$

INZ004-005-014>016-021>024-210400-
NORTH CENTRAL INDIANA

CITY           SKY/WX    TMP DP  RH WIND       PRES   REMARKS
GOSHEN         RAIN      56  55  97 SW10      30.05R FOG
LOGANSPORT +   DRIZZLE   54  54 100 CALM      30.08R
PERU/GRISSOM   DRIZZLE   56  56 100 CALM      30.06R
ROCHESTER +    LGT RAIN  57  57 100 SW6       30.07R
SOUTH BEND     LGT RAIN  40  39  97 NW9       30.08R WCI  34
WARSAW +       LGT RAIN  55  55 100 SW6       30.06R

$$

INZ006>009-017-018-025>027-210400-
NORTHEAST INDIANA

CITY           SKY/WX    TMP DP  RH WIND       PRES   REMARKS
AUBURN +       CLOUDY    54  54 100 CALM      30.07R
FORT WAYNE     CLOUDY    58  56  93 W5        30.08R
HUNTINGTON +   CLOUDY    56  55  95 W3        30.07R
KENDALLVILLE + LGT RAIN  55  55 100 SW5       30.06R

$$

INZ028-029-035-036-043>045-051>053-210400-
WEST CENTRAL INDIANA

CITY           SKY/WX    TMP DP  RH WIND       PRES   REMARKS
CRAWFORDSVL +  CLOUDY    58  57  96 N8        30.05R
GREENCASTLE +  FAIR      68  55  64 S12G18    30.04S
LAFAYETTE      LGT RAIN  56  56 100 CALM      30.05R
TERRE HAUTE    FAIR      68  58  70 S16       30.01F

$$

INZ030>032-037>040-046>048-054>057-064-065-210400-
CENTRAL INDIANA

CITY           SKY/WX    TMP DP  RH WIND       PRES   REMARKS
COLUMBUS       MOCLDY    68  52  56 S13       30.08F
FISHERS *+     FAIR      66  59  77 SW15      30.06R
FRANKFORT +    LGT RAIN  60  57  90 N5        30.08F
GREENWOOD *+   FAIR      67 -29   2 S13G22    30.07S
INDIANAPOLIS   CLOUDY    68  56  65 S14       30.05R
-EAGLE CREEK   FAIR      70  55  59 S12G20    30.04R
KOKOMO +       LGT RAIN  57  55  93 NW6       30.09R
MARION +       CLOUDY    58  54  88 CALM      30.09R
MT COMFORT *+  FAIR      66  59  77 S12       30.07S
SHELBYVILLE    CLOUDY    68  55  63 S13       30.07S
ZIONSVILLE +   MOCLDY    66  55  66 S15G24    30.06R

$$

INZ033-034-041-042-049-050-058-059-210400-
EAST CENTRAL INDIANA

CITY           SKY/WX    TMP DP  RH WIND       PRES   REMARKS
MUNCIE         FAIR      70  55  59 S12G25    30.05R
RICHMOND +     MOCLDY    64  57  77 S15       30.12R

$$

INZ060-061-067>069-081>083-085>088-210400-
SOUTHWEST INDIANA

CITY           SKY/WX    TMP DP  RH WIND       PRES   REMARKS
EVANSVILLE     CLOUDY    70  59  68 S9        30.06F
HUNTINGBURG +  CLOUDY    70  60  70 S10       30.07F
WASHINGTON +   MOCLDY    67  56  68 S12       30.04F

$$

INZ062-063-066-070>080-084-089>092-210400-
SOUTH CENTRAL AND SOUTHEAST INDIANA

CITY           SKY/WX    TMP DP  RH WIND       PRES   REMARKS
BATESVILLE +   MOCLDY    66  57  72 MISG      30.11S
BEDFORD +      CLOUDY    70  55  60 S12       30.07F
BLOOMINGTON    CLOUDY    70  58  65 S13G23    30.05F
FRENCH LICK *+ MOCLDY    70  52  52 S7        30.08F
MADISON *+     CLOUDY    70  54  56 S7        30.14S
NORTH VERNON + FAIR      68  55  64 S7        30.10F
SEYMOUR +      CLOUDY    68  55  64 S5        30.08F

$$





USA.gov is the U.S. government's official web portal to all federal, state and local government web resources and services.